Location: Songkhla
(7.2000°N, 100.6000°E)
Time: 21:05:40
(UTC+07:00)

Cosmos 2181 Rocket - Pass Details

Date: 16 April 2026
Orbit: 951 x 1014 km, 82.9° (Epoch: 20 May)

Event Time Altitude Azimuth Distance (km) Brightness Sun altitude
Rises 18:48:20 0° 11° (N) 3,626 7.0 -6.3°
Reaches altitude 10° 18:51:00 10° 19° (NNE) 2,688 6.2 -6.9°
Maximum altitude 18:56:39 38° 86° (E) 1,433 4.4 -8.3°
Drops below altitude 10° 19:02:22 10° 153° (SSE) 2,729 6.0 -9.7°
Sets 19:05:04 0° 160° (SSE) 3,688 6.7 -10.3°
